QPF
0.00 0.00 0.00 0.00 0.00 0.00 0.00 0.00 0.00 0.00 0.00 0.00 0.00 0.00 0.00 0.00 0.00 0.00 0.00 0.00 0.00 0.00 0.01 0.01 0.01 0.01 0.01 0.01 0.01 0.01 0.02 0.01 0.01 0.01 0.01 0.01 0.01 0.00 0.00 0.00 0.00 0.00 0.00
0.00 0.00 0.00 0.00 0.00 0.00 0.00 0.00 0.00 0.00 0.00 0.00 0.00 0.00 0.00 0.00 0.00 0.00 0.00 0.00 0.00 0.00 0.00 0.00 0.01 0.01 0.01 0.01 0.01 0.02 0.02 0.02 0.02 0.01 0.01 0.01 0.00 0.00 0.00 0.00 0.00 0.00 0.00
0.00 0.00 0.00 0.00 0.00 0.00 0.00 0.00 0.00 0.00 0.00 0.00 0.00 0.00 0.00 0.00 0.00 0.00 0.00 0.00 0.00 0.00 0.00 0.00 0.00 0.00 0.00 0.01 0.01 0.01 0.02 0.02 0.02 0.02 0.01 0.01 0.01 0.01 0.00 0.00 0.00 0.00 0.00
0.00 0.00 0.00 0.00 0.00 0.00 0.00 0.00 0.00 0.00 0.00 0.00 0.00 0.00 0.00 0.00 0.00 0.00 0.00 0.00 0.00 0.00 0.00 0.00 0.00 0.00 0.00 0.00 0.01 0.01 0.01 0.02 0.02 0.02 0.02 0.01 0.01 0.01 0.01 0.01 0.01 0.01 0.01
0.00 0.00 0.00 0.00 0.00 0.00 0.00 0.00 0.00 0.00 0.00 0.00 0.00 0.00 0.00 0.00 0.00 0.00 0.00 0.00 0.00 0.00 0.00 0.00 0.00 0.00 0.00 0.00 0.00 0.01 0.01 0.01 0.02 0.02 0.02 0.02 0.01 0.01 0.02 0.02 0.02 0.02 0.02
0.00 0.00 0.00 0.00 0.00 0.00 0.00 0.00 0.00 0.00 0.00 0.00 0.00 0.00 0.00 0.00 0.00 0.00 0.00 0.00 0.00 0.00 0.00 0.00 0.00 0.00 0.00 0.00 0.00 0.00 0.01 0.01 0.02 0.02 0.01 0.01 0.01 0.01 0.01 0.02 0.02 0.03 0.03
0.00 0.00 0.00 0.00 0.00 0.01 0.00 0.00 0.00 0.00 0.00 0.00 0.00 0.00 0.00 0.00 0.00 0.00 0.00 0.00 0.00 0.00 0.00 0.00 0.00 0.00 0.00 0.00 0.00 0.00 0.00 0.01 0.01 0.02 0.02 0.02 0.02 0.02 0.02 0.03 0.03 0.04 0.04
0.00 0.00 0.00 0.00 0.00 0.01 0.01 0.00 0.00 0.01 0.01 0.00 0.01 0.01 0.00 0.00 0.00 0.00 0.00 0.00 0.00 0.00 0.00 0.00 0.00 0.00 0.00 0.00 0.00 0.00 0.00 0.00 0.00 0.01 0.02 0.03 0.04 0.04 0.03 0.04 0.05 0.06 0.05
0.00 0.00 0.00 0.00 0.00 0.01 0.01 0.00 0.01 0.01 0.01 0.01 0.01 0.01 0.01 0.00 0.00 0.00 0.00 0.00 0.00 0.00 0.00 0.00 0.00 0.00 0.00 0.00 0.00 0.00 0.00 0.00 0.00 0.00 0.01 0.03 0.04 0.05 0.06 0.07 0.08 0.09 0.07
0.00 0.00 0.00 0.00 0.00 0.00 0.00 0.00 0.00 0.01 0.01 0.01 0.01 0.01 0.01 0.01 0.01 0.01 0.00 0.00 0.00 0.00 0.00 0.00 0.00 0.00 0.00 0.00 0.00 0.00 0.00 0.00 0.00 0.00 0.00 0.01 0.01 0.03 0.05 0.08 0.11 0.10 0.08
0.00 0.00 0.00 0.00 0.00 0.00 0.00 0.00 0.01 0.01 0.01 0.01 0.01 0.01 0.01 0.01 0.02 0.02 0.01 0.00 0.00 0.00 0.00 0.00 0.00 0.00 0.00 0.00 0.00 0.00 0.00 0.00 0.00 0.00 0.00 0.00 0.00 0.01 0.03 0.07 0.08 0.07 0.07
0.00 0.00 0.00 0.00 0.00 0.00 0.00 0.00 0.01 0.01 0.01 0.01 0.01 0.02 0.02 0.01 0.01 0.01 0.01 0.01 0.00 0.00 0.00 0.00 0.00 0.00 0.00 0.00 0.00 0.00 0.00 0.00 0.00 0.00 0.00 0.00 0.00 0.01 0.02 0.03 0.03 0.04 0.05
0.00 0.00 0.00 0.00 0.00 0.00 0.00 0.00 0.01 0.01 0.01 0.01 0.02 0.02 0.02 0.01 0.01 0.01 0.01 0.01 0.01 0.00 0.00 0.00 0.00 0.00 0.00 0.00 0.00 0.00 0.00 0.00 0.00 0.00 0.01 0.01 0.01 0.01 0.01 0.01 0.01 0.02 0.04
0.00 0.00 0.00 0.00 0.00 0.00 0.00 0.01 0.01 0.01 0.01 0.01 0.01 0.01 0.02 0.02 0.02 0.02 0.02 0.02 0.02 0.01 0.00 0.00 0.00 0.00 0.00 0.00 0.00 0.00 0.00 0.01 0.01 0.01 0.01 0.01 0.01 0.01 0.00 0.01 0.01 0.02 0.03
0.00 0.00 0.01 0.01 0.00 0.01 0.01 0.01 0.01 0.01 0.01 0.01 0.01 0.01 0.02 0.01 0.02 0.02 0.02 0.02 0.03 0.02 0.01 0.01 0.01 0.01 0.00 0.00 0.00 0.00 0.00 0.01 0.01 0.01 0.01 0.01 0.01 0.01 0.01 0.01 0.01 0.02 0.03
0.00 0.00 0.00 0.00 0.01 0.01 0.01 0.01 0.01 0.01 0.01 0.01 0.01 0.01 0.02 0.01 0.02 0.02 0.02 0.03 0.04 0.04 0.03 0.01 0.01 0.01 0.00 0.00 0.01 0.00 0.01 0.01 0.01 0.01 0.01 0.01 0.01 0.01 0.01 0.01 0.02 0.03 0.04
0.00 0.00 0.00 0.00 0.01 0.01 0.01 0.01 0.01 0.02 0.02 0.02 0.02 0.02 0.01 0.01 0.02 0.02 0.02 0.03 0.03 0.04 0.03 0.01 0.00 0.00 0.00 0.01 0.01 0.01 0.01 0.01 0.01 0.01 0.01 0.01 0.01 0.02 0.01 0.02 0.03 0.04 0.04
0.00 0.00 0.00 0.00 0.00 0.00 0.01 0.01 0.01 0.01 0.02 0.02 0.02 0.02 0.02 0.02 0.02 0.02 0.03 0.03 0.03 0.04 0.04 0.02 0.01 0.01 0.01 0.01 0.02 0.02 0.02 0.02 0.02 0.02 0.02 0.02 0.02 0.02 0.02 0.03 0.04 0.04 0.03
0.00 0.00 0.00 0.00 0.00 0.00 0.00 0.01 0.01 0.01 0.01 0.02 0.02 0.02 0.02 0.02 0.03 0.03 0.03 0.03 0.03 0.03 0.03 0.03 0.02 0.01 0.01 0.02 0.02 0.03 0.03 0.02 0.02 0.02 0.03 0.03 0.03 0.04 0.04 0.04 0.04 0.04 0.03
0.00 0.00 0.00 0.00 0.00 0.00 0.00 0.00 0.01 0.01 0.01 0.02 0.02 0.02 0.02 0.02 0.02 0.03 0.03 0.03 0.04 0.04 0.04 0.05 0.04 0.03 0.03 0.03 0.04 0.05 0.04 0.03 0.03 0.03 0.03 0.04 0.05 0.05 0.05 0.04 0.04 0.04 0.04
0.00 0.00 0.00 0.00 0.00 0.00 0.00 0.00 0.01 0.01 0.01 0.01 0.02 0.02 0.02 0.02 0.03 0.03 0.04 0.04 0.05 0.06 0.06 0.06 0.06 0.05 0.04 0.04 0.04 0.04 0.05 0.05 0.05 0.04 0.04 0.04 0.04 0.04 0.04 0.03 0.03 0.03 0.04
0.00 0.00 0.00 0.00 0.00 0.00 0.00 0.01 0.00 0.01 0.01 0.01 0.02 0.02 0.02 0.03 0.03 0.04 0.04 0.05 0.06 0.07 0.08 0.08 0.07 0.06 0.05 0.05 0.05 0.06 0.07 0.07 0.07 0.05 0.05 0.05 0.04 0.04 0.04 0.04 0.04 0.04 0.04
0.00 0.00 0.00 0.00 0.00 0.00 0.01 0.01 0.01 0.01 0.01 0.01 0.02 0.02 0.02 0.02 0.03 0.04 0.04 0.05 0.06 0.07 0.08 0.09 0.09 0.07 0.06 0.05 0.07 0.08 0.08 0.08 0.06 0.05 0.06 0.06 0.05 0.05 0.05 0.05 0.06 0.05 0.05
0.01 0.01 0.01 0.00 0.00 0.00 0.01 0.01 0.01 0.01 0.01 0.02 0.02 0.02 0.02 0.02 0.02 0.03 0.03 0.04 0.05 0.05 0.06 0.07 0.08 0.07 0.07 0.06 0.07 0.08 0.09 0.10 0.09 0.07 0.07 0.07 0.06 0.05 0.06 0.06 0.07 0.08 0.07
0.01 0.01 0.01 0.01 0.01 0.01 0.01 0.01 0.01 0.01 0.02 0.02 0.02 0.02 0.02 0.02 0.02 0.03 0.03 0.03 0.04 0.05 0.06 0.07 0.08 0.09 0.09 0.10 0.09 0.10 0.11 0.12 0.11 0.09 0.07 0.08 0.07 0.07 0.07 0.07 0.08 0.09 0.10
0.01 0.01 0.01 0.01 0.01 0.02 0.02 0.02 0.02 0.02 0.02 0.02 0.02 0.02 0.02 0.02 0.03 0.03 0.03 0.03 0.05 0.05 0.06 0.06 0.07 0.08 0.08 0.09 0.11 0.10 0.11 0.13 0.13 0.11 0.08 0.08 0.08 0.09 0.11 0.09 0.08 0.09 0.10
MSLP
1023.12 1023.33 1023.48 1023.60 1023.71 1023.82 1023.94 1024.08 1024.22 1024.34 1024.43 1024.46 1024.43 1024.36 1024.26 1024.17 1024.10 1024.09 1024.13 1024.21 1024.31 1024.40 1024.47 1024.50 1024.49 1024.47 1024.45 1024.45 1024.50 1024.60 1024.74 1024.91 1025.10 1025.26 1025.41 1025.53 1025.62 1025.69 1025.74 1025.79 1025.84 1025.88 1025.91
1022.77 1022.98 1023.13 1023.25 1023.34 1023.45 1023.58 1023.73 1023.90 1024.05 1024.17 1024.22 1024.21 1024.14 1024.03 1023.90 1023.80 1023.74 1023.74 1023.78 1023.87 1023.96 1024.05 1024.10 1024.12 1024.12 1024.11 1024.11 1024.14 1024.22 1024.33 1024.49 1024.67 1024.85 1025.03 1025.19 1025.33 1025.45 1025.56 1025.65 1025.74 1025.81 1025.86
1022.34 1022.55 1022.71 1022.83 1022.94 1023.06 1023.20 1023.38 1023.57 1023.75 1023.89 1023.96 1023.96 1023.88 1023.74 1023.57 1023.41 1023.30 1023.24 1023.26 1023.32 1023.42 1023.52 1023.60 1023.66 1023.68 1023.68 1023.68 1023.70 1023.74 1023.83 1023.96 1024.12 1024.31 1024.51 1024.70 1024.89 1025.06 1025.22 1025.36 1025.49 1025.60 1025.69
1021.82 1022.05 1022.23 1022.37 1022.49 1022.63 1022.80 1023.00 1023.22 1023.42 1023.58 1023.66 1023.65 1023.55 1023.38 1023.17 1022.95 1022.78 1022.67 1022.64 1022.69 1022.78 1022.89 1023.00 1023.09 1023.14 1023.16 1023.16 1023.16 1023.18 1023.24 1023.33 1023.47 1023.65 1023.85 1024.06 1024.27 1024.49 1024.69 1024.88 1025.06 1025.21 1025.34
1021.24 1021.48 1021.68 1021.84 1021.99 1022.16 1022.36 1022.58 1022.81 1023.03 1023.20 1023.29 1023.27 1023.15 1022.95 1022.70 1022.44 1022.21 1022.06 1021.99 1022.00 1022.09 1022.21 1022.34 1022.44 1022.51 1022.54 1022.55 1022.54 1022.53 1022.55 1022.62 1022.72 1022.87 1023.05 1023.26 1023.49 1023.72 1023.96 1024.18 1024.40 1024.60 1024.78
1020.57 1020.83 1021.05 1021.25 1021.43 1021.63 1021.85 1022.09 1022.34 1022.57 1022.74 1022.82 1022.81 1022.68 1022.46 1022.18 1021.89 1021.62 1021.43 1021.33 1021.32 1021.38 1021.50 1021.63 1021.74 1021.82 1021.86 1021.86 1021.84 1021.81 1021.80 1021.82 1021.89 1022.01 1022.16 1022.35 1022.56 1022.79 1023.04 1023.28 1023.52 1023.76 1023.98
1019.83 1020.10 1020.35 1020.58 1020.81 1021.03 1021.28 1021.54 1021.79 1022.02 1022.20 1022.29 1022.27 1022.14 1021.93 1021.64 1021.34 1021.06 1020.84 1020.71 1020.67 1020.71 1020.80 1020.91 1021.02 1021.10 1021.14 1021.13 1021.09 1021.05 1021.01 1021.00 1021.03 1021.10 1021.21 1021.36 1021.54 1021.75 1021.97 1022.21 1022.46 1022.70 1022.95
1019.00 1019.30 1019.58 1019.85 1020.11 1020.37 1020.64 1020.91 1021.18 1021.41 1021.59 1021.68 1021.68 1021.58 1021.38 1021.12 1020.83 1020.55 1020.32 1020.16 1020.09 1020.09 1020.14 1020.22 1020.31 1020.37 1020.39 1020.37 1020.32 1020.26 1020.21 1020.17 1020.16 1020.19 1020.26 1020.36 1020.50 1020.65 1020.84 1021.04 1021.27 1021.51 1021.75
1018.10 1018.42 1018.74 1019.05 1019.36 1019.66 1019.95 1020.23 1020.50 1020.74 1020.93 1021.04 1021.07 1021.00 1020.85 1020.62 1020.36 1020.10 1019.87 1019.69 1019.58 1019.54 1019.54 1019.57 1019.61 1019.64 1019.63 1019.60 1019.55 1019.48 1019.42 1019.37 1019.34 1019.34 1019.36 1019.42 1019.49 1019.59 1019.71 1019.86 1020.04 1020.24 1020.46
1017.10 1017.46 1017.83 1018.19 1018.54 1018.88 1019.20 1019.50 1019.78 1020.03 1020.23 1020.37 1020.43 1020.41 1020.31 1020.14 1019.93 1019.70 1019.47 1019.28 1019.13 1019.03 1018.97 1018.94 1018.93 1018.91 1018.88 1018.83 1018.78 1018.71 1018.66 1018.60 1018.57 1018.55 1018.54 1018.55 1018.57 1018.61 1018.67 1018.75 1018.86 1019.01 1019.18
1016.02 1016.43 1016.86 1017.27 1017.67 1018.05 1018.39 1018.71 1019.01 1019.27 1019.49 1019.66 1019.76 1019.80 1019.76 1019.65 1019.49 1019.28 1019.07 1018.86 1018.68 1018.52 1018.40 1018.31 1018.23 1018.17 1018.11 1018.05 1017.99 1017.94 1017.89 1017.86 1017.83 1017.80 1017.78 1017.77 1017.75 1017.74 1017.73 1017.74 1017.79 1017.86 1017.96
1014.86 1015.33 1015.81 1016.28 1016.73 1017.14 1017.52 1017.86 1018.16 1018.44 1018.68 1018.88 1019.03 1019.12 1019.14 1019.10 1018.98 1018.81 1018.61 1018.39 1018.17 1017.97 1017.79 1017.63 1017.50 1017.40 1017.31 1017.24 1017.18 1017.14 1017.11 1017.09 1017.08 1017.06 1017.04 1017.02 1016.98 1016.93 1016.88 1016.84 1016.82 1016.82 1016.84
1013.64 1014.17 1014.71 1015.23 1015.72 1016.17 1016.57 1016.92 1017.24 1017.52 1017.79 1018.02 1018.21 1018.36 1018.44 1018.44 1018.38 1018.24 1018.06 1017.83 1017.59 1017.34 1017.11 1016.90 1016.73 1016.58 1016.46 1016.38 1016.32 1016.28 1016.27 1016.26 1016.27 1016.27 1016.26 1016.24 1016.19 1016.14 1016.06 1015.99 1015.92 1015.87 1015.83
1012.39 1012.98 1013.57 1014.14 1014.67 1015.14 1015.55 1015.91 1016.24 1016.54 1016.82 1017.08 1017.31 1017.50 1017.63 1017.69 1017.67 1017.57 1017.40 1017.17 1016.91 1016.64 1016.38 1016.13 1015.92 1015.74 1015.60 1015.49 1015.42 1015.38 1015.36 1015.36 1015.37 1015.38 1015.38 1015.36 1015.33 1015.28 1015.20 1015.12 1015.04 1014.95 1014.88
1011.20 1011.83 1012.47 1013.07 1013.62 1014.10 1014.52 1014.88 1015.21 1015.51 1015.81 1016.10 1016.36 1016.59 1016.77 1016.87 1016.90 1016.82 1016.68 1016.46 1016.20 1015.92 1015.63 1015.37 1015.13 1014.92 1014.75 1014.62 1014.52 1014.45 1014.41 1014.39 1014.38 1014.38 1014.37 1014.36 1014.33 1014.29 1014.24 1014.17 1014.10 1014.02 1013.94
1010.13 1010.81 1011.48 1012.10 1012.65 1013.13 1013.54 1013.90 1014.22 1014.53 1014.84 1015.15 1015.45 1015.72 1015.94 1016.08 1016.14 1016.10 1015.98 1015.78 1015.53 1015.25 1014.96 1014.68 1014.43 1014.20 1014.00 1013.84 1013.70 1013.58 1013.48 1013.41 1013.35 1013.30 1013.26 1013.23 1013.20 1013.17 1013.13 1013.09 1013.04 1012.99 1012.93
1009.31 1010.02 1010.71 1011.33 1011.87 1012.34 1012.73 1013.07 1013.39 1013.71 1014.03 1014.36 1014.69 1015.00 1015.25 1015.43 1015.52 1015.51 1015.41 1015.24 1015.00 1014.73 1014.45 1014.17 1013.91 1013.67 1013.44 1013.23 1013.03 1012.85 1012.67 1012.51 1012.36 1012.23 1012.13 1012.04 1011.97 1011.92 1011.88 1011.86 1011.84 1011.83 1011.82
1008.82 1009.55 1010.24 1010.85 1011.38 1011.82 1012.19 1012.51 1012.82 1013.14 1013.47 1013.83 1014.18 1014.52 1014.80 1015.01 1015.13 1015.15 1015.07 1014.91 1014.69 1014.44 1014.17 1013.90 1013.64 1013.38 1013.13 1012.87 1012.61 1012.34 1012.07 1011.79 1011.53 1011.28 1011.06 1010.88 1010.73 1010.63 1010.56 1010.53 1010.52 1010.54 1010.58
1008.72 1009.46 1010.13 1010.73 1011.22 1011.63 1011.97 1012.28 1012.58 1012.89 1013.24 1013.61 1013.98 1014.34 1014.65 1014.88 1015.02 1015.05 1014.98 1014.84 1014.64 1014.40 1014.14 1013.88 1013.62 1013.35 1013.08 1012.78 1012.46 1012.10 1011.73 1011.33 1010.93 1010.54 1010.17 1009.86 1009.59 1009.38 1009.24 1009.16 1009.14 1009.16 1009.23
1008.99 1009.72 1010.39 1010.95 1011.42 1011.79 1012.10 1012.38 1012.67 1012.98 1013.32 1013.70 1014.09 1014.46 1014.78 1015.02 1015.16 1015.20 1015.14 1015.00 1014.81 1014.58 1014.33 1014.08 1013.82 1013.55 1013.26 1012.93 1012.55 1012.12 1011.65 1011.13 1010.58 1010.04 1009.52 1009.03 1008.62 1008.27 1008.01 1007.84 1007.75 1007.74 1007.80
1009.56 1010.29 1010.93 1011.47 1011.90 1012.24 1012.52 1012.77 1013.04 1013.33 1013.67 1014.05 1014.43 1014.80 1015.12 1015.35 1015.49 1015.52 1015.46 1015.31 1015.12 1014.89 1014.64 1014.39 1014.14 1013.87 1013.57 1013.22 1012.81 1012.32 1011.77 1011.14 1010.47 1009.78 1009.09 1008.44 1007.85 1007.33 1006.91 1006.61 1006.41 1006.33 1006.34
1010.32 1011.04 1011.66 1012.16 1012.56 1012.86 1013.11 1013.33 1013.57 1013.85 1014.17 1014.52 1014.89 1015.25 1015.54 1015.76 1015.88 1015.90 1015.82 1015.66 1015.45 1015.21 1014.96 1014.71 1014.46 1014.19 1013.89 1013.53 1013.10 1012.58 1011.97 1011.27 1010.50 1009.68 1008.85 1008.03 1007.26 1006.57 1005.98 1005.50 1005.17 1004.97 1004.90
1011.11 1011.82 1012.41 1012.89 1013.25 1013.52 1013.74 1013.93 1014.13 1014.38 1014.67 1015.00 1015.34 1015.66 1015.93 1016.12 1016.22 1016.20 1016.10 1015.91 1015.68 1015.42 1015.16 1014.90 1014.64 1014.38 1014.07 1013.72 1013.28 1012.75 1012.11 1011.37 1010.53 1009.62 1008.68 1007.72 1006.79 1005.93 1005.17 1004.53 1004.03 1003.69 1003.50
1011.79 1012.48 1013.06 1013.51 1013.84 1014.08 1014.26 1014.42 1014.59 1014.80 1015.05 1015.34 1015.65 1015.93 1016.17 1016.33 1016.39 1016.35 1016.21 1016.00 1015.75 1015.46 1015.18 1014.89 1014.62 1014.34 1014.04 1013.68 1013.25 1012.72 1012.08 1011.32 1010.45 1009.49 1008.46 1007.41 1006.36 1005.36 1004.44 1003.64 1002.99 1002.50 1002.18
1012.27 1012.94 1013.50 1013.93 1014.24 1014.45 1014.61 1014.73 1014.87 1015.04 1015.25 1015.50 1015.76 1016.01 1016.21 1016.34 1016.38 1016.31 1016.15 1015.91 1015.63 1015.31 1014.99 1014.68 1014.38 1014.07 1013.75 1013.38 1012.95 1012.42 1011.79 1011.03 1010.16 1009.18 1008.11 1007.00 1005.88 1004.77 1003.74 1002.81 1002.02 1001.39 1000.94
1012.52 1013.17 1013.71 1014.12 1014.42 1014.61 1014.75 1014.85 1014.96 1015.10 1015.27 1015.49 1015.71 1015.93 1016.10 1016.20 1016.22 1016.13 1015.95 1015.69 1015.38 1015.03 1014.67 1014.31 1013.97 1013.62 1013.26 1012.87 1012.42 1011.89 1011.25 1010.50 1009.64 1008.66 1007.59 1006.45 1005.29 1004.12 1003.01 1001.98 1001.08 1000.33 999.76
Thickness
5676 5674 5673 5671 5670 5669 5667 5666 5665 5664 5663 5662 5661 5660 5660 5659 5659 5658 5658 5656 5654 5653 5651 5650 5649 5647 5646 5643 5641 5639 5636 5634 5630 5627 5623 5620 5616 5613 5609 5605 5600 5596 5592
5676 5674 5673 5671 5670 5668 5667 5665 5665 5663 5662 5661 5660 5659 5659 5658 5658 5657 5656 5656 5654 5652 5651 5649 5648 5646 5645 5643 5641 5638 5636 5633 5630 5626 5623 5619 5615 5611 5607 5603 5599 5594 5590
5675 5674 5673 5671 5670 5668 5666 5664 5663 5662 5661 5660 5660 5659 5658 5657 5657 5656 5655 5654 5654 5652 5650 5649 5647 5645 5643 5642 5640 5637 5635 5632 5629 5626 5622 5618 5614 5610 5606 5602 5597 5593 5588
5675 5673 5672 5671 5669 5667 5665 5663 5662 5661 5660 5659 5659 5659 5658 5657 5656 5655 5654 5653 5653 5652 5651 5648 5646 5644 5642 5640 5638 5636 5633 5631 5628 5624 5621 5617 5613 5609 5604 5600 5596 5592 5587
5675 5673 5672 5671 5668 5666 5664 5662 5660 5659 5658 5657 5657 5656 5656 5656 5656 5655 5654 5653 5652 5651 5649 5648 5645 5643 5640 5638 5636 5634 5632 5630 5627 5623 5620 5616 5612 5608 5604 5599 5595 5591 5587
5674 5672 5671 5669 5666 5664 5662 5660 5658 5656 5655 5654 5653 5653 5654 5655 5655 5655 5654 5653 5652 5650 5648 5646 5643 5642 5639 5637 5634 5632 5630 5628 5625 5622 5619 5615 5611 5607 5603 5599 5595 5591 5586
5673 5671 5669 5667 5665 5663 5661 5659 5656 5653 5651 5649 5647 5650 5655 5656 5657 5656 5655 5653 5652 5649 5646 5643 5641 5639 5638 5635 5633 5631 5629 5626 5624 5621 5617 5614 5610 5606 5602 5598 5594 5590 5586
5671 5669 5667 5666 5663 5661 5659 5656 5653 5651 5649 5646 5644 5644 5648 5655 5658 5655 5653 5651 5649 5646 5644 5641 5639 5636 5635 5633 5632 5629 5627 5624 5622 5619 5616 5612 5609 5605 5601 5597 5594 5590 5585
5669 5667 5665 5663 5661 5658 5657 5654 5651 5648 5646 5644 5641 5639 5639 5645 5650 5653 5650 5647 5644 5642 5641 5638 5636 5633 5631 5629 5628 5627 5624 5621 5618 5616 5613 5610 5607 5603 5600 5596 5592 5588 5584
5665 5663 5661 5659 5657 5655 5653 5651 5648 5645 5642 5641 5638 5636 5635 5637 5634 5641 5645 5642 5639 5637 5636 5634 5632 5630 5627 5625 5624 5623 5621 5618 5614 5612 5609 5606 5603 5600 5597 5594 5591 5587 5583
5661 5658 5656 5654 5652 5650 5648 5646 5643 5640 5638 5636 5634 5632 5629 5627 5626 5625 5632 5636 5635 5633 5631 5629 5628 5626 5624 5622 5620 5619 5617 5614 5611 5607 5604 5601 5599 5596 5593 5590 5588 5585 5581
5656 5653 5651 5648 5646 5644 5643 5640 5638 5635 5633 5631 5630 5627 5624 5623 5623 5620 5622 5626 5627 5630 5628 5625 5623 5621 5619 5617 5616 5614 5612 5609 5606 5603 5600 5597 5594 5591 5588 5586 5583 5581 5578
5649 5647 5644 5642 5640 5638 5635 5633 5631 5629 5627 5625 5623 5622 5620 5619 5617 5615 5615 5618 5619 5622 5622 5622 5619 5616 5613 5611 5610 5608 5606 5603 5601 5598 5595 5592 5589 5586 5583 5580 5578 5576 5573
5641 5638 5635 5633 5631 5629 5627 5625 5623 5621 5619 5618 5616 5614 5613 5612 5610 5608 5606 5605 5608 5612 5615 5616 5615 5611 5607 5604 5603 5600 5598 5597 5594 5592 5589 5586 5583 5580 5578 5575 5572 5570 5568
5631 5629 5626 5624 5622 5619 5618 5616 5614 5612 5610 5609 5607 5605 5604 5603 5601 5599 5597 5594 5593 5599 5607 5610 5607 5605 5600 5596 5594 5591 5590 5590 5587 5585 5582 5580 5577 5575 5572 5569 5567 5564 5562
5619 5617 5616 5614 5611 5609 5607 5605 5604 5602 5600 5599 5597 5595 5594 5593 5591 5589 5587 5585 5583 5584 5592 5601 5597 5595 5591 5588 5585 5582 5581 5581 5579 5577 5575 5573 5570 5568 5566 5563 5561 5558 5556
5606 5604 5603 5601 5599 5597 5595 5593 5591 5590 5589 5588 5586 5585 5584 5582 5581 5579 5577 5576 5575 5573 5577 5588 5585 5584 5580 5578 5576 5573 5572 5571 5571 5570 5567 5565 5563 5561 5558 5556 5554 5552 5549
5592 5590 5589 5587 5586 5584 5582 5580 5578 5577 5576 5575 5574 5573 5572 5571 5570 5569 5567 5567 5565 5564 5563 5570 5573 5571 5569 5567 5566 5565 5563 5562 5561 5562 5560 5557 5555 5553 5551 5549 5546 5544 5541
5575 5574 5573 5572 5571 5569 5567 5565 5564 5563 5562 5561 5560 5559 5559 5557 5557 5557 5556 5555 5555 5553 5552 5553 5559 5558 5557 5555 5553 5553 5553 5552 5551 5551 5550 5548 5547 5544 5542 5541 5538 5536 5533
5558 5557 5556 5556 5554 5553 5551 5549 5548 5547 5546 5545 5544 5544 5544 5542 5542 5542 5542 5542 5541 5540 5540 5540 5543 5545 5544 5542 5538 5539 5540 5541 5541 5539 5538 5537 5536 5535 5533 5531 5529 5527 5524
5539 5539 5538 5538 5536 5535 5533 5531 5530 5530 5530 5530 5529 5529 5529 5527 5525 5524 5524 5525 5525 5525 5525 5525 5528 5530 5531 5527 5525 5525 5524 5528 5529 5527 5525 5526 5524 5524 5523 5521 5519 5517 5515
5521 5520 5519 5519 5518 5517 5515 5513 5512 5513 5513 5513 5513 5513 5513 5511 5510 5509 5508 5507 5506 5507 5509 5509 5512 5514 5516 5514 5511 5507 5506 5506 5513 5517 5509 5513 5510 5511 5512 5511 5510 5508 5506
5502 5501 5501 5500 5500 5499 5496 5496 5494 5495 5496 5496 5495 5495 5495 5495 5493 5494 5495 5494 5492 5490 5488 5490 5494 5499 5498 5497 5493 5492 5490 5491 5496 5498 5491 5497 5498 5497 5499 5499 5498 5496 5494
5483 5483 5482 5482 5481 5480 5479 5478 5478 5479 5479 5479 5478 5477 5477 5477 5476 5475 5477 5479 5480 5478 5475 5473 5474 5478 5477 5476 5474 5473 5474 5474 5478 5480 5475 5476 5483 5483 5484 5484 5484 5483 5481
5464 5463 5462 5462 5462 5462 5461 5460 5460 5461 5462 5461 5460 5459 5458 5458 5458 5456 5457 5460 5462 5463 5460 5457 5456 5457 5458 5458 5456 5455 5455 5453 5460 5467 5463 5459 5464 5463 5466 5469 5470 5469 5467
5445 5444 5442 5442 5442 5442 5442 5442 5441 5442 5443 5443 5442 5441 5439 5438 5438 5436 5436 5439 5442 5444 5442 5443 5442 5443 5443 5443 5442 5439 5439 5438 5440 5446 5450 5442 5444 5442 5446 5454 5453 5453 5452